Погода в Пефкохори

Греция     39°59′21″N   23°36′41″E
темп.,
°C
ветер,
м/с
пор.,
м/с
влажн.,
%
обл.,
%
осадки,
мм/ч
давл.,
гПа
погр.,
м
13 мая, чт
чт1300:00+16в23670 0.0 100878
03:00+16ссз11640 0.0 100760
06:00+15ссз12655 0.0 1007104
09:00+18сз22560 0.0 1008337
12:00+21зсз11540 0.0 1008570
15:00+23ю23470 0.0 1007779
18:00+21ююв555312 0.0 1007445
21:00+18юв35755 0.0 1007139
14 мая, пт
пт1400:00+17вюв238250 0.0 100858
03:00+17сз22800 0.0 100933
06:00+17зсз46803 0.0 1009172
09:00+19зсз46650 0.0 1011334
12:00+21зюз33510 0.0 1012536
15:00+23юз24410 0.0 1012863
18:00+23ююв434781 0.0 1011508
21:00+19ююв4868100 0.0 1011208
15 мая, сб
сб1500:00+18ююв4879100 0.0 1011192
03:00+18ююв337669 0.0 101150
06:00+17в338020 0.0 101153
09:00+20всв226752 0.0 1011282
12:00+21ююв2356100 0.0 1011662
15:00+18ссз4471100 0.3 1011224
18:00+19юз596256 0.4 1009556
21:00+17ююз367612 0.4 1008225
16 мая, вс
вс1600:00+17юз227432 0.2 100948
03:00+16ссз347676 0.4 1009122
06:00+16зсз34748 0.0 1009155
09:00+18зсз566538 0.0 1009547
12:00+20зсз56595 0.0 1009570
15:00+22з455121 0.0 1009565
18:00+22зюз235010 0.0 1008393
21:00+19ю116298 0.0 100816
17 мая, пн
пн1700:00+18ююз116450 0.0 100912
03:00+18ю11655 0.0 101011
06:00+17ю11700 0.0 101011
09:00+21зсз22590 0.0 1011222
12:00+23зсз22500 0.0 1011499
15:00+25ю43450 0.0 1011755
18:00+24ююв54485 0.0 1010487
21:00+20ююв33701 0.0 101146